Time,TemperatureF,DewpointF,PressureIn,WindDirection,WindDirectionDegrees,WindSpeedMPH,WindSpeedGustMPH,Humidity,HourlyPrecipIn,Conditions,Clouds,dailyrainin,SoftwareType,DateUTC
2013-09-13 00:05:00,56.7,54.0,29.89,ESE,123,0.0,0.0,91,0.00,,,0.00,weatherlink.com 1.10,2013-09-13 07:05:00,
2013-09-13 00:20:00,56.5,54.0,29.89,SE,124,0.0,0.0,91,0.00,,,0.00,weatherlink.com 1.10,2013-09-13 07:20:00,
2013-09-13 00:35:00,56.3,54.0,29.88,SE,124,0.0,0.0,91,0.00,,,0.00,weatherlink.com 1.10,2013-09-13 07:35:00,
2013-09-13 00:50:00,56.2,54.0,29.88,SE,124,0.0,0.0,92,0.00,,,0.00,weatherlink.com 1.10,2013-09-13 07:50:00,
2013-09-13 01:05:00,56.3,54.0,29.88,SE,124,0.0,0.0,92,0.00,,,0.00,weatherlink.com 1.10,2013-09-13 08:05:00,
2013-09-13 01:20:00,56.2,54.0,29.87,SE,124,0.0,0.0,92,0.00,,,0.00,weatherlink.com 1.10,2013-09-13 08:20:00,
2013-09-13 01:36:00,55.9,54.0,29.87,SE,124,0.0,0.0,92,0.00,,,0.00,weatherlink.com 1.10,2013-09-13 08:36:00,
2013-09-13 01:51:00,55.7,54.0,29.87,SE,124,0.0,0.0,92,0.00,,,0.00,weatherlink.com 1.10,2013-09-13 08:51:00,
2013-09-13 02:06:00,55.6,53.0,29.88,ESE,123,0.0,0.0,92,0.00,,,0.00,weatherlink.com 1.10,2013-09-13 09:06:00,
2013-09-13 02:21:00,55.5,53.0,29.88,ESE,123,0.0,0.0,92,0.00,,,0.00,weatherlink.com 1.10,2013-09-13 09:21:00,
2013-09-13 02:36:00,55.5,53.0,29.88,SE,124,0.0,0.0,92,0.00,,,0.00,weatherlink.com 1.10,2013-09-13 09:36:00,
2013-09-13 02:51:00,55.3,53.0,29.87,SE,124,0.0,0.0,92,0.00,,,0.00,weatherlink.com 1.10,2013-09-13 09:51:00,
2013-09-13 03:06:00,55.0,53.0,29.86,ESE,123,0.0,0.0,91,0.00,,,0.00,weatherlink.com 1.10,2013-09-13 10:06:00,
2013-09-13 03:21:00,54.8,52.0,29.86,SE,124,0.0,0.0,91,0.00,,,0.00,weatherlink.com 1.10,2013-09-13 10:21:00,
2013-09-13 03:36:00,54.5,52.0,29.86,SE,124,0.0,0.0,91,0.00,,,0.00,weatherlink.com 1.10,2013-09-13 10:36:00,
2013-09-13 03:51:00,54.2,52.0,29.86,SE,124,0.0,0.0,92,0.00,,,0.00,weatherlink.com 1.10,2013-09-13 10:51:00,
2013-09-13 04:06:00,53.9,52.0,29.86,SE,124,0.0,0.0,92,0.00,,,0.00,weatherlink.com 1.10,2013-09-13 11:06:00,
2013-09-13 04:21:00,53.7,52.0,29.86,SE,124,0.0,0.0,92,0.00,,,0.00,weatherlink.com 1.10,2013-09-13 11:21:00,
2013-09-13 04:36:00,53.5,51.0,29.86,SE,124,0.0,0.0,91,0.00,,,0.00,weatherlink.com 1.10,2013-09-13 11:36:00,
2013-09-13 04:51:00,53.3,51.0,29.86,SE,124,0.0,0.0,92,0.00,,,0.00,weatherlink.com 1.10,2013-09-13 11:51:00,
2013-09-13 05:06:00,53.0,51.0,29.86,SE,124,0.0,0.0,91,0.00,,,0.00,weatherlink.com 1.10,2013-09-13 12:06:00,
2013-09-13 05:21:00,52.8,51.0,29.86,ESE,123,0.0,0.0,92,0.00,,,0.00,weatherlink.com 1.10,2013-09-13 12:21:00,
2013-09-13 05:36:00,52.6,50.0,29.86,ESE,123,0.0,0.0,92,0.00,,,0.00,weatherlink.com 1.10,2013-09-13 12:36:00,
2013-09-13 05:51:00,52.4,50.0,29.86,ESE,123,0.0,0.0,92,0.00,,,0.00,weatherlink.com 1.10,2013-09-13 12:51:00,
2013-09-13 06:06:00,52.2,50.0,29.86,ESE,123,0.0,0.0,92,0.00,,,0.00,weatherlink.com 1.10,2013-09-13 13:06:00,
2013-09-13 06:21:00,52.1,50.0,29.86,SE,124,0.0,0.0,92,0.00,,,0.00,weatherlink.com 1.10,2013-09-13 13:21:00,
2013-09-13 06:36:00,52.0,50.0,29.86,ESE,123,0.0,0.0,92,0.00,,,0.00,weatherlink.com 1.10,2013-09-13 13:36:00,
2013-09-13 06:51:00,51.9,50.0,29.86,SE,124,0.0,0.0,92,0.00,,,0.00,weatherlink.com 1.10,2013-09-13 13:51:00,
2013-09-13 07:06:00,51.8,50.0,29.86,SE,124,0.0,0.0,92,0.00,,,0.00,weatherlink.com 1.10,2013-09-13 14:06:00,
2013-09-13 07:21:00,51.7,50.0,29.86,SE,124,0.0,0.0,93,0.00,,,0.00,weatherlink.com 1.10,2013-09-13 14:21:00,
2013-09-13 07:36:00,51.8,50.0,29.86,SE,124,0.0,0.0,93,0.00,,,0.00,weatherlink.com 1.10,2013-09-13 14:36:00,
2013-09-13 07:51:00,51.9,50.0,29.86,ESE,123,0.0,0.0,93,0.00,,,0.00,weatherlink.com 1.10,2013-09-13 14:51:00,
2013-09-13 08:06:00,52.1,50.0,29.87,ESE,123,0.0,0.0,93,0.00,,,0.00,weatherlink.com 1.10,2013-09-13 15:06:00,
2013-09-13 08:21:00,52.5,51.0,29.86,ESE,123,0.0,0.0,94,0.00,,,0.00,weatherlink.com 1.10,2013-09-13 15:21:00,
2013-09-13 08:36:00,53.1,52.0,29.86,SE,124,0.0,0.0,94,0.00,,,0.00,weatherlink.com 1.10,2013-09-13 15:36:00,
2013-09-13 08:51:00,53.7,52.0,29.86,SE,124,0.0,0.0,95,0.00,,,0.00,weatherlink.com 1.10,2013-09-13 15:51:00,
2013-09-13 09:06:00,54.7,53.0,29.86,SE,124,0.0,0.0,95,0.00,,,0.00,weatherlink.com 1.10,2013-09-13 16:06:00,
2013-09-13 09:21:00,55.8,54.0,29.86,SE,124,0.0,0.0,95,0.00,,,0.00,weatherlink.com 1.10,2013-09-13 16:21:00,
2013-09-13 09:36:00,56.8,55.0,29.86,SE,124,0.0,0.0,95,0.00,,,0.00,weatherlink.com 1.10,2013-09-13 16:36:00,
2013-09-13 09:51:00,57.7,56.0,29.86,SE,124,0.0,0.0,94,0.00,,,0.00,weatherlink.com 1.10,2013-09-13 16:51:00,
2013-09-13 10:06:00,59.0,57.0,29.85,SE,124,0.0,0.0,93,0.00,,,0.00,weatherlink.com 1.10,2013-09-13 17:06:00,
2013-09-13 10:21:00,59.6,57.0,29.85,SE,124,0.0,0.0,92,0.00,,,0.00,weatherlink.com 1.10,2013-09-13 17:21:00,
2013-09-13 10:36:00,60.6,58.0,29.84,SE,124,0.0,0.0,91,0.00,,,0.00,weatherlink.com 1.10,2013-09-13 17:36:00,
2013-09-13 10:51:00,61.7,59.0,29.84,SE,124,0.0,0.0,89,0.00,,,0.00,weatherlink.com 1.10,2013-09-13 17:51:00,
2013-09-13 11:06:00,62.7,59.0,29.84,SE,124,0.0,0.0,88,0.00,,,0.00,weatherlink.com 1.10,2013-09-13 18:06:00,
2013-09-13 11:21:00,64.3,60.0,29.83,East,88,0.0,0.0,85,0.00,,,0.00,weatherlink.com 1.10,2013-09-13 18:21:00,
2013-09-13 11:37:00,65.7,60.0,29.82,East,89,0.0,0.0,83,0.00,,,0.00,weatherlink.com 1.10,2013-09-13 18:37:00,
2013-09-13 11:52:00,66.9,61.0,29.82,East,89,0.0,0.0,80,0.00,,,0.00,weatherlink.com 1.10,2013-09-13 18:52:00,
2013-09-13 12:07:00,67.9,61.0,29.81,East,89,0.0,0.0,78,0.00,,,0.00,weatherlink.com 1.10,2013-09-13 19:07:00,
2013-09-13 12:22:00,68.9,61.0,29.81,East,89,0.0,0.0,77,0.00,,,0.00,weatherlink.com 1.10,2013-09-13 19:22:00,
2013-09-13 12:37:00,70.1,61.0,29.80,ESE,103,0.0,0.0,74,0.00,,,0.00,weatherlink.com 1.10,2013-09-13 19:37:00,
2013-09-13 12:52:00,71.3,62.0,29.79,ESE,102,0.0,0.0,72,0.00,,,0.00,weatherlink.com 1.10,2013-09-13 19:52:00,
2013-09-13 13:07:00,72.1,63.0,29.79,ESE,102,0.0,0.0,72,0.00,,,0.00,weatherlink.com 1.10,2013-09-13 20:07:00,
2013-09-13 13:22:00,72.6,63.0,29.78,ESE,103,0.0,0.0,71,0.00,,,0.00,weatherlink.com 1.10,2013-09-13 20:22:00,
2013-09-13 13:37:00,73.0,63.0,29.77,ESE,103,0.0,0.0,71,0.00,,,0.00,weatherlink.com 1.10,2013-09-13 20:37:00,
2013-09-13 13:52:00,73.7,63.0,29.77,SE,146,0.0,0.0,69,0.00,,,0.00,weatherlink.com 1.10,2013-09-13 20:52:00,
2013-09-13 14:07:00,74.9,60.0,29.77,SSE,155,0.0,0.0,61,0.00,,,0.00,weatherlink.com 1.10,2013-09-13 21:07:00,
2013-09-13 14:22:00,75.4,59.0,29.76,SSE,148,0.0,0.0,57,0.00,,,0.00,weatherlink.com 1.10,2013-09-13 21:22:00,
2013-09-13 14:37:00,75.5,59.0,29.76,South,169,0.0,0.0,57,0.00,,,0.00,weatherlink.com 1.10,2013-09-13 21:37:00,
2013-09-13 14:52:00,75.6,59.0,29.76,South,169,0.0,0.0,57,0.00,,,0.00,weatherlink.com 1.10,2013-09-13 21:52:00,
2013-09-13 15:07:00,75.7,59.0,29.75,South,169,0.0,0.0,56,0.00,,,0.00,weatherlink.com 1.10,2013-09-13 22:07:00,
2013-09-13 15:22:00,75.8,58.0,29.75,South,170,0.0,0.0,54,0.00,,,0.00,weatherlink.com 1.10,2013-09-13 22:22:00,
2013-09-13 15:37:00,76.0,58.0,29.75,South,170,0.0,0.0,54,0.00,,,0.00,weatherlink.com 1.10,2013-09-13 22:37:00,
2013-09-13 15:52:00,76.0,57.0,29.75,South,169,0.0,0.0,52,0.00,,,0.00,weatherlink.com 1.10,2013-09-13 22:52:00,
2013-09-13 16:07:00,75.9,57.0,29.75,SSE,168,0.0,0.0,53,0.00,,,0.00,weatherlink.com 1.10,2013-09-13 23:07:00,
2013-09-13 16:22:00,75.6,56.0,29.75,SSE,168,0.0,0.0,51,0.00,,,0.00,weatherlink.com 1.10,2013-09-13 23:22:00,
2013-09-13 16:37:00,75.1,55.0,29.75,SSE,168,0.0,0.0,49,0.00,,,0.00,weatherlink.com 1.10,2013-09-13 23:37:00,
2013-09-13 16:52:00,74.7,53.0,29.75,South,169,0.0,0.0,47,0.00,,,0.00,weatherlink.com 1.10,2013-09-13 23:52:00,
2013-09-13 17:07:00,74.0,52.0,29.74,South,169,0.0,0.0,46,0.00,,,0.00,weatherlink.com 1.10,2013-09-14 00:07:00,
2013-09-13 17:22:00,73.4,51.0,29.74,South,169,0.0,0.0,46,0.00,,,0.00,weatherlink.com 1.10,2013-09-14 00:22:00,
2013-09-13 17:37:00,72.9,50.0,29.74,South,169,0.0,0.0,45,0.00,,,0.00,weatherlink.com 1.10,2013-09-14 00:37:00,
2013-09-13 17:52:00,72.4,50.0,29.74,South,169,0.0,0.0,46,0.00,,,0.00,weatherlink.com 1.10,2013-09-14 00:52:00,
2013-09-13 18:07:00,71.9,50.0,29.74,South,169,0.0,0.0,47,0.00,,,0.00,weatherlink.com 1.10,2013-09-14 01:07:00,
2013-09-13 18:22:00,71.3,49.0,29.74,SSE,168,0.0,0.0,45,0.00,,,0.00,weatherlink.com 1.10,2013-09-14 01:22:00,
2013-09-13 18:37:00,70.7,46.0,29.74,SSE,168,0.0,0.0,42,0.00,,,0.00,weatherlink.com 1.10,2013-09-14 01:37:00,
2013-09-13 18:52:00,70.2,46.0,29.74,SSE,168,0.0,0.0,42,0.00,,,0.00,weatherlink.com 1.10,2013-09-14 01:52:00,
2013-09-13 19:07:00,69.7,44.0,29.75,South,169,0.0,0.0,40,0.00,,,0.00,weatherlink.com 1.10,2013-09-14 02:07:00,
2013-09-13 19:22:00,69.0,52.0,29.75,South,169,0.0,0.0,56,0.00,,,0.00,weatherlink.com 1.10,2013-09-14 02:22:00,
2013-09-13 19:37:00,68.0,54.0,29.75,South,169,0.0,0.0,61,0.00,,,0.00,weatherlink.com 1.10,2013-09-14 02:37:00,
2013-09-13 19:52:00,66.7,54.0,29.75,South,169,0.0,0.0,64,0.00,,,0.00,weatherlink.com 1.10,2013-09-14 02:52:00,
2013-09-13 20:07:00,65.5,54.0,29.75,SSE,168,0.0,0.0,67,0.00,,,0.00,weatherlink.com 1.10,2013-09-14 03:07:00,
2013-09-13 20:22:00,64.5,54.0,29.75,SSE,168,0.0,0.0,69,0.00,,,0.00,weatherlink.com 1.10,2013-09-14 03:22:00,
2013-09-13 20:37:00,63.4,53.0,29.76,South,169,0.0,0.0,70,0.00,,,0.00,weatherlink.com 1.10,2013-09-14 03:37:00,
2013-09-13 20:52:00,62.5,54.0,29.76,SSE,168,0.0,0.0,73,0.00,,,0.00,weatherlink.com 1.10,2013-09-14 03:52:00,
2013-09-13 21:07:00,61.7,54.0,29.77,South,169,0.0,0.0,76,0.00,,,0.00,weatherlink.com 1.10,2013-09-14 04:07:00,
2013-09-13 21:22:00,60.9,53.0,29.77,South,169,0.0,0.0,76,0.00,,,0.00,weatherlink.com 1.10,2013-09-14 04:22:00,
2013-09-13 21:37:00,60.2,53.0,29.77,South,169,0.0,0.0,76,0.00,,,0.00,weatherlink.com 1.10,2013-09-14 04:37:00,
2013-09-13 21:53:00,59.6,53.0,29.77,SSE,168,0.0,0.0,78,0.00,,,0.00,weatherlink.com 1.10,2013-09-14 04:53:00,
2013-09-13 22:08:00,59.0,53.0,29.77,SSE,168,0.0,0.0,79,0.00,,,0.00,weatherlink.com 1.10,2013-09-14 05:08:00,
2013-09-13 22:23:00,58.7,53.0,29.77,South,169,0.0,0.0,80,0.00,,,0.00,weatherlink.com 1.10,2013-09-14 05:23:00,
2013-09-13 22:38:00,58.1,52.0,29.77,SSE,168,0.0,0.0,80,0.00,,,0.00,weatherlink.com 1.10,2013-09-14 05:38:00,
2013-09-13 22:53:00,57.6,52.0,29.77,South,169,0.0,0.0,82,0.00,,,0.00,weatherlink.com 1.10,2013-09-14 05:53:00,
2013-09-13 23:08:00,57.0,52.0,29.78,South,169,0.0,0.0,82,0.00,,,0.00,weatherlink.com 1.10,2013-09-14 06:08:00,
2013-09-13 23:23:00,56.6,52.0,29.77,South,169,0.0,0.0,83,0.00,,,0.00,weatherlink.com 1.10,2013-09-14 06:23:00,
2013-09-13 23:38:00,56.2,52.0,29.77,SSE,168,0.0,0.0,84,0.00,,,0.00,weatherlink.com 1.10,2013-09-14 06:38:00,
2013-09-13 23:53:00,55.7,51.0,29.77,South,169,0.0,0.0,85,0.00,,,0.00,weatherlink.com 1.10,2013-09-14 06:53:00,